Regional Weather Roundup
Issued by NWS

Home | Current Version | Previous Version | Graphics & Text | Print | Product List | Glossary On
Versions: 1 2 3 4 5 6 7 8 9 10 11 12 13 14 15 16 17 18 19 20 21 22 23 24 25 26 27 28 29 30 31 32 33 34 35 36 37 38 39 40 41 42 43 44 45 46 47 48 49 50
000
ASUS43 KIND 010509
RWRIN

WEATHER ROUNDUP FOR INDIANA
NATIONAL WEATHER SERVICE INDIANAPOLIS IN
100 AM EDT SAT AUG 01 2015

NOTE: "FAIR" INDICATES FEW OR NO CLOUDS BELOW 12,000 FEET WITH NO
SIGNIFICANT WEATHER AND/OR OBSTRUCTIONS TO VISIBILITY.

* - STATION DOES NOT REPORT WEATHER SUCH AS PRECIPITATION OR FOG.

+ - STATION NOT QUALITY CONTROLLED BY THE NATIONAL WEATHER SERVICE.
    USE DATA WITH CAUTION...ESPECIALLY DEWPOINT AND RELATIVE
    HUMIDITY OBSERVATIONS.

INZ001>003-010>013-019-020-010600-
NORTHWEST INDIANA

CITY           SKY/WX    TMP DP  RH WIND       PRES   REMARKS
GARY /AIRPORT/ CLEAR     69  53  57 W6        29.98S
KNOX *+        CLEAR     59  59 100 CALM      29.97S
LA PORTE +     CLEAR     61  59  94 W5        29.98S
MICHIGAN CITY+ CLEAR     70  55  60 CALM      29.98R
MONTICELLO +   CLEAR     65  60  83 CALM      29.99R
RENSSELAER +   CLEAR     64  59  82 W5        29.99S
VALPARAISO     CLEAR     68  57  68 W3        29.99R

$$

LMZ046-743>745-010600-
SOUTHERN LAKE MICHIGAN

STATION/POSITION TIME  TEMP    WIND        PRES    WAVE
                       AIR SEA DIR/SP/G            HT
                 (UTC) (F)     (DEG/KT/KT) (MB)    (FT)
BURNS HARBOR     0400   75     300/  8/  9 1015.2S
MICHIGAN CITY    0400   74     270/ 11/ 12   N/A
5NW MICH CITY    0500   75 74  310/ 10/ 14   N/A     2

$$

INZ004-005-014>016-021>024-010600-
NORTH CENTRAL INDIANA

CITY           SKY/WX    TMP DP  RH WIND       PRES   REMARKS
GOSHEN         CLEAR     61  55  81 CALM      29.96S
LOGANSPORT +   CLEAR     61  52  72 SW3       29.99S
PERU/GRISSOM   CLEAR     65  58  78 CALM      29.98S
ROCHESTER +    CLEAR     68  59  73 CALM      29.98S
SOUTH BEND     CLEAR     63  56  78 W5        29.97S
WARSAW +       CLEAR     61  55  82 CALM      29.97S

$$

INZ006>009-017-018-025>027-010600-
NORTHEAST INDIANA

CITY           SKY/WX    TMP DP  RH WIND       PRES   REMARKS
ANGOLA *+      CLEAR     61  54  77 CALM      29.96S
AUBURN +       CLEAR     64  54  68 CALM      29.97S
FORT WAYNE     PTCLDY    63  57  81 SW6       29.98R
HUNTINGTON +   CLEAR     64  58  79 CALM      29.98S

$$

INZ028-029-035-036-043>045-051>053-010600-
WEST CENTRAL INDIANA

CITY           SKY/WX    TMP DP  RH WIND       PRES   REMARKS
CRAWFORDSVL +  CLEAR     63  61  92 W3          N/A
GREENCASTLE +  CLEAR     72  54  53 CALM      30.03R
LAFAYETTE      CLEAR     63  59  87 CALM      30.00R
TERRE HAUTE    CLEAR     66  62  87 W5        30.02R

$$

INZ030>032-037>040-046>048-054>057-064-065-010600-
CENTRAL INDIANA

CITY           SKY/WX    TMP DP  RH WIND       PRES   REMARKS
FISHERS *+     CLEAR     68  63  83 NW5       30.01R
FRANKFORT +    CLEAR    N/A N/A N/A SW3       30.02R
GREENWOOD *+   CLEAR     68  57  68 W5        30.01S
INDIANAPOLIS   CLEAR     71  59  65 W7        29.99S
-EAGLE CREEK   CLEAR     72  62  71 W8        30.00R
KOKOMO *+      CLEAR     64  55  72 CALM      29.99S
MARION +       CLEAR     61  58  90 CALM      30.00R
MT COMFORT *+  CLEAR     66  63  88 W7        30.01R
SHELBYVILLE    CLEAR     70  60  70 W5        29.99S
ZIONSVILLE +   CLEAR     65  60  82 CALM      30.01R

$$

INZ033-034-041-042-049-050-058-059-010600-
EAST CENTRAL INDIANA

CITY           SKY/WX    TMP DP  RH WIND       PRES   REMARKS
MUNCIE         CLEAR     65  59  81 W3        29.99S

$$

INZ060-061-067>069-081>083-085>088-010600-
SOUTHWEST INDIANA

CITY           SKY/WX    TMP DP  RH WIND       PRES   REMARKS
EVANSVILLE     CLEAR     76  69  79 W5        30.04R
HUNTINGBURG *+ CLEAR     72  66  83 CALM      30.03S
WASHINGTON +   PTCLDY    70  66  88 CALM      30.02R

$$

INZ062-063-066-070>080-084-089>092-010600-
SOUTH CENTRAL AND SOUTHEAST INDIANA

CITY           SKY/WX    TMP DP  RH WIND       PRES   REMARKS
BLOOMINGTON    CLEAR     63  61  93 CALM      30.02S
MADISON *+     CLEAR     68  63  83 CALM      30.03S
NORTH VERNON + CLEAR     70  70 100 CALM      30.01S
SEYMOUR +      CLEAR     70  61  73 CALM      30.01R

$$



USA.gov is the U.S. government's official web portal to all federal, state and local government web resources and services.